Time,TemperatureF,DewpointF,PressureIn,WindDirection,WindDirectionDegrees,WindSpeedMPH,WindSpeedGustMPH,Humidity,HourlyPrecipIn,Conditions,Clouds,dailyrainin,SoftwareType,DateUTC
2013-09-16 00:01:00,54.5,52.5,29.10,NE,45,3.5,3.5,93,0.00,,,0.00,WeatherDisplay:10.37,2013-09-16 05:01:00,
2013-09-16 00:06:00,54.5,52.5,29.10,NE,45,3.5,3.5,93,0.00,,,0.00,WeatherDisplay:10.37,2013-09-16 05:06:00,
2013-09-16 00:11:00,53.8,52.4,29.09,NE,45,3.5,3.5,95,0.00,,,0.00,WeatherDisplay:10.37,2013-09-16 05:11:00,
2013-09-16 00:16:00,53.6,52.5,29.10,NE,45,3.5,3.5,96,0.00,,,0.00,WeatherDisplay:10.37,2013-09-16 05:16:00,
2013-09-16 00:21:00,53.4,52.3,29.10,NE,45,2.3,2.3,96,0.00,,,0.00,WeatherDisplay:10.37,2013-09-16 05:21:00,
2013-09-16 00:26:00,53.2,52.1,29.10,NE,45,3.5,3.5,96,0.00,,,0.00,WeatherDisplay:10.37,2013-09-16 05:26:00,
2013-09-16 00:31:00,53.1,52.0,29.10,NE,45,3.5,3.5,96,0.00,,,0.00,WeatherDisplay:10.37,2013-09-16 05:31:00,
2013-09-16 00:36:00,53.1,52.2,29.10,NNE,22,3.5,3.5,97,0.00,,,0.00,WeatherDisplay:10.37,2013-09-16 05:36:00,
2013-09-16 00:41:00,53.1,52.5,29.10,NE,45,3.5,3.5,98,0.00,,,0.00,WeatherDisplay:10.37,2013-09-16 05:41:00,
2013-09-16 00:46:00,53.1,52.5,29.10,NE,45,3.5,3.5,98,0.00,,,0.00,WeatherDisplay:10.37,2013-09-16 05:46:00,
2013-09-16 00:51:00,52.9,52.3,29.10,NE,45,3.5,3.5,98,0.00,,,0.00,WeatherDisplay:10.37,2013-09-16 05:51:00,
2013-09-16 00:56:00,52.9,52.3,29.10,NE,45,3.5,3.5,98,0.00,,,0.00,WeatherDisplay:10.37,2013-09-16 05:56:00,
2013-09-16 01:01:00,52.9,52.3,29.10,NE,45,3.5,3.5,98,0.00,,,0.00,WeatherDisplay:10.37,2013-09-16 06:01:00,
2013-09-16 01:06:00,52.9,52.3,29.10,NE,45,3.5,3.5,98,0.00,,,0.00,WeatherDisplay:10.37,2013-09-16 06:06:00,
2013-09-16 01:11:00,52.5,52.2,29.10,NNE,22,3.5,3.5,99,0.00,,,0.00,WeatherDisplay:10.37,2013-09-16 06:11:00,
2013-09-16 01:16:00,52.5,52.2,29.11,NE,45,1.2,1.2,99,0.00,,,0.00,WeatherDisplay:10.37,2013-09-16 06:16:00,
2013-09-16 01:21:00,52.5,52.2,29.11,NE,45,3.5,3.5,99,0.00,,,0.00,WeatherDisplay:10.37,2013-09-16 06:21:00,
2013-09-16 01:26:00,52.5,52.2,29.11,North,0,3.5,3.5,99,0.00,,,0.00,WeatherDisplay:10.37,2013-09-16 06:26:00,
2013-09-16 01:31:00,52.5,52.2,29.11,North,0,3.5,3.5,99,0.00,,,0.00,WeatherDisplay:10.37,2013-09-16 06:31:00,
2013-09-16 01:36:00,51.6,51.1,29.11,North,0,2.3,2.3,98,0.00,,,0.00,WeatherDisplay:10.37,2013-09-16 06:36:00,
2013-09-16 01:41:00,51.3,50.7,29.11,North,0,3.5,3.5,98,0.00,,,0.00,WeatherDisplay:10.37,2013-09-16 06:41:00,
2013-09-16 01:46:00,51.3,51.0,29.11,North,0,2.3,2.3,99,0.00,,,0.00,WeatherDisplay:10.37,2013-09-16 06:46:00,
2013-09-16 01:51:00,50.7,50.2,29.11,South,180,1.2,0.0,98,0.00,,,0.00,WeatherDisplay:10.37,2013-09-16 06:51:00,
2013-09-16 01:56:00,50.0,49.5,29.11,NNE,22,2.3,2.3,98,0.00,,,0.00,WeatherDisplay:10.37,2013-09-16 06:56:00,
2013-09-16 02:01:00,50.0,49.7,29.11,North,0,3.5,3.5,99,0.00,,,0.00,WeatherDisplay:10.37,2013-09-16 07:01:00,
2013-09-16 02:06:00,50.0,49.7,29.11,North,0,3.5,3.5,99,0.00,,,0.00,WeatherDisplay:10.37,2013-09-16 07:06:00,
2013-09-16 02:11:00,50.2,49.9,29.11,NE,45,3.5,3.5,99,0.00,,,0.00,WeatherDisplay:10.37,2013-09-16 07:11:00,
2013-09-16 02:16:00,50.0,49.7,29.12,NE,45,5.8,5.8,99,0.00,,,0.00,WeatherDisplay:10.37,2013-09-16 07:16:00,
2013-09-16 02:21:00,49.6,49.4,29.11,NE,45,3.5,3.5,99,0.00,,,0.00,WeatherDisplay:10.37,2013-09-16 07:21:00,
2013-09-16 02:26:00,49.8,49.6,29.12,NE,45,3.5,3.5,99,0.00,,,0.00,WeatherDisplay:10.37,2013-09-16 07:26:00,
2013-09-16 02:31:00,49.6,49.4,29.12,NE,45,4.6,4.6,99,0.00,,,0.00,WeatherDisplay:10.37,2013-09-16 07:31:00,
2013-09-16 02:36:00,49.8,49.6,29.11,NE,45,3.5,3.5,99,0.00,,,0.00,WeatherDisplay:10.37,2013-09-16 07:36:00,
2013-09-16 02:41:00,50.0,49.7,29.11,NE,45,3.5,3.5,99,0.00,,,0.00,WeatherDisplay:10.37,2013-09-16 07:41:00,
2013-09-16 02:46:00,50.2,49.9,29.12,NE,45,2.3,2.3,99,0.00,,,0.00,WeatherDisplay:10.37,2013-09-16 07:46:00,
2013-09-16 02:51:00,50.4,50.1,29.11,NE,45,3.5,3.5,99,0.00,,,0.00,WeatherDisplay:10.37,2013-09-16 07:51:00,
2013-09-16 02:56:00,50.7,50.4,29.12,NE,45,3.8,3.8,99,0.00,,,0.00,WeatherDisplay:10.37,2013-09-16 07:56:00,
2013-09-16 03:01:00,50.9,50.6,29.11,NE,45,3.5,3.5,99,0.00,,,0.00,WeatherDisplay:10.37,2013-09-16 08:01:00,
2013-09-16 03:06:00,50.9,50.6,29.11,NE,45,3.5,3.5,99,0.00,,,0.00,WeatherDisplay:10.37,2013-09-16 08:06:00,
2013-09-16 03:11:00,51.4,51.2,29.12,SW,225,1.2,0.0,99,0.00,,,0.00,WeatherDisplay:10.37,2013-09-16 08:11:00,
2013-09-16 03:16:00,51.4,51.2,29.11,NW,315,1.2,1.2,99,0.00,,,0.00,WeatherDisplay:10.37,2013-09-16 08:16:00,
2013-09-16 03:21:00,51.4,51.2,29.11,North,0,1.2,0.0,99,0.00,,,0.00,WeatherDisplay:10.37,2013-09-16 08:21:00,
2013-09-16 03:26:00,51.6,51.3,29.11,North,0,3.5,3.5,99,0.00,,,0.00,WeatherDisplay:10.37,2013-09-16 08:26:00,
2013-09-16 03:31:00,51.8,51.5,29.11,North,0,3.5,3.5,99,0.00,,,0.00,WeatherDisplay:10.37,2013-09-16 08:31:00,
2013-09-16 03:36:00,51.8,51.5,29.11,North,0,4.6,4.6,99,0.00,,,0.00,WeatherDisplay:10.37,2013-09-16 08:36:00,
2013-09-16 03:41:00,51.8,51.5,29.11,NE,45,4.6,4.6,99,0.00,,,0.00,WeatherDisplay:10.37,2013-09-16 08:41:00,
2013-09-16 03:46:00,52.0,51.7,29.11,NE,45,5.8,5.8,99,0.00,,,0.00,WeatherDisplay:10.37,2013-09-16 08:46:00,
2013-09-16 03:51:00,52.2,51.9,29.11,NE,45,5.8,5.8,99,0.00,,,0.00,WeatherDisplay:10.37,2013-09-16 08:51:00,
2013-09-16 03:56:00,52.0,51.7,29.11,North,0,6.0,6.0,99,0.00,,,0.00,WeatherDisplay:10.37,2013-09-16 08:56:00,
2013-09-16 04:01:00,51.8,51.5,29.11,North,0,5.8,5.8,99,0.00,,,0.00,WeatherDisplay:10.37,2013-09-16 09:01:00,
2013-09-16 04:06:00,51.8,51.5,29.11,North,0,5.8,5.8,99,0.00,,,0.00,WeatherDisplay:10.37,2013-09-16 09:06:00,
2013-09-16 04:11:00,51.8,51.5,29.11,NE,45,5.8,5.8,99,0.00,,,0.00,WeatherDisplay:10.37,2013-09-16 09:11:00,
2013-09-16 04:16:00,52.0,51.7,29.11,NE,45,4.6,4.6,99,0.00,,,0.00,WeatherDisplay:10.37,2013-09-16 09:16:00,
2013-09-16 04:21:00,52.0,51.7,29.12,NE,45,3.8,3.8,99,0.00,,,0.00,WeatherDisplay:10.37,2013-09-16 09:21:00,
2013-09-16 04:26:00,52.0,51.7,29.12,North,0,3.5,3.5,99,0.00,,,0.00,WeatherDisplay:10.37,2013-09-16 09:26:00,
2013-09-16 04:31:00,52.0,51.7,29.11,NE,45,4.6,4.6,99,0.00,,,0.00,WeatherDisplay:10.37,2013-09-16 09:31:00,
2013-09-16 04:36:00,52.2,51.9,29.12,NE,45,5.8,5.8,99,0.00,,,0.00,WeatherDisplay:10.37,2013-09-16 09:36:00,
2013-09-16 04:41:00,52.5,52.2,29.11,North,0,4.6,4.6,99,0.00,,,0.00,WeatherDisplay:10.37,2013-09-16 09:41:00,
2013-09-16 04:46:00,52.5,52.2,29.11,NE,45,4.6,4.6,99,0.00,,,0.00,WeatherDisplay:10.37,2013-09-16 09:46:00,
2013-09-16 04:51:00,52.7,52.4,29.11,North,0,3.5,3.5,99,0.00,,,0.00,WeatherDisplay:10.37,2013-09-16 09:51:00,
2013-09-16 04:56:00,52.9,52.6,29.12,NE,45,5.8,5.8,99,0.00,,,0.00,WeatherDisplay:10.37,2013-09-16 09:56:00,
2013-09-16 05:01:00,53.1,52.8,29.11,NE,45,4.6,4.6,99,0.00,,,0.00,WeatherDisplay:10.37,2013-09-16 10:01:00,
2013-09-16 05:06:00,53.1,52.8,29.11,NE,45,4.6,4.6,99,0.00,,,0.00,WeatherDisplay:10.37,2013-09-16 10:06:00,
2013-09-16 05:11:00,53.2,53.0,29.12,NE,45,6.9,6.9,99,0.00,,,0.00,WeatherDisplay:10.37,2013-09-16 10:11:00,
2013-09-16 05:16:00,53.2,53.0,29.12,NE,45,5.8,5.8,99,0.00,,,0.00,WeatherDisplay:10.37,2013-09-16 10:16:00,
2013-09-16 05:21:00,53.2,53.0,29.12,North,0,5.8,5.8,99,0.00,,,0.00,WeatherDisplay:10.37,2013-09-16 10:21:00,
2013-09-16 05:26:00,53.4,53.1,29.12,NE,45,5.8,5.8,99,0.00,,,0.00,WeatherDisplay:10.37,2013-09-16 10:26:00,
2013-09-16 05:31:00,53.2,53.0,29.12,NE,45,5.8,5.8,99,0.00,,,0.00,WeatherDisplay:10.37,2013-09-16 10:31:00,
2013-09-16 05:36:00,53.2,53.0,29.12,NE,45,4.6,4.6,99,0.00,,,0.00,WeatherDisplay:10.37,2013-09-16 10:36:00,
2013-09-16 05:41:00,53.2,53.0,29.12,NE,45,2.3,0.0,99,0.00,,,0.00,WeatherDisplay:10.37,2013-09-16 10:41:00,
2013-09-16 05:46:00,53.2,53.0,29.13,NE,45,0.0,0.0,99,0.00,,,0.00,WeatherDisplay:10.37,2013-09-16 10:46:00,
2013-09-16 05:51:00,53.4,53.1,29.13,NE,45,1.2,0.0,99,0.00,,,0.00,WeatherDisplay:10.37,2013-09-16 10:51:00,
2013-09-16 05:56:00,53.4,53.1,29.13,NE,45,3.5,3.5,99,0.00,,,0.00,WeatherDisplay:10.37,2013-09-16 10:56:00,
2013-09-16 06:01:00,53.6,53.3,29.13,NE,45,2.3,2.3,99,0.00,,,0.00,WeatherDisplay:10.37,2013-09-16 11:01:00,
2013-09-16 06:06:00,53.6,53.3,29.13,NE,45,2.3,2.3,99,0.00,,,0.00,WeatherDisplay:10.37,2013-09-16 11:06:00,
2013-09-16 06:11:00,54.0,53.7,29.13,NE,45,1.2,1.2,99,0.00,,,0.00,WeatherDisplay:10.37,2013-09-16 11:11:00,
2013-09-16 06:16:00,54.1,53.9,29.13,NE,45,2.3,0.0,99,0.00,,,0.00,WeatherDisplay:10.37,2013-09-16 11:16:00,
2013-09-16 06:21:00,54.1,53.9,29.13,North,0,1.2,0.0,99,0.00,,,0.00,WeatherDisplay:10.37,2013-09-16 11:21:00,
2013-09-16 06:26:00,54.1,53.9,29.14,SW,225,1.2,0.0,99,0.00,,,0.00,WeatherDisplay:10.37,2013-09-16 11:26:00,
2013-09-16 06:31:00,54.1,53.9,29.14,SE,135,1.2,0.0,99,0.00,,,0.00,WeatherDisplay:10.37,2013-09-16 11:31:00,
2013-09-16 06:36:00,54.3,54.0,29.14,East,90,3.5,3.5,99,0.00,,,0.00,WeatherDisplay:10.37,2013-09-16 11:36:00,
2013-09-16 06:41:00,54.3,54.0,29.14,East,90,4.6,4.6,99,0.00,,,0.00,WeatherDisplay:10.37,2013-09-16 11:41:00,
2013-09-16 06:46:00,54.3,54.0,29.14,East,90,3.5,3.5,99,0.00,,,0.00,WeatherDisplay:10.37,2013-09-16 11:46:00,
2013-09-16 06:51:00,54.3,54.0,29.14,NE,45,2.3,2.3,99,0.00,,,0.00,WeatherDisplay:10.37,2013-09-16 11:51:00,
2013-09-16 06:56:00,54.3,54.0,29.13,NE,45,5.8,5.8,99,0.00,,,0.00,WeatherDisplay:10.37,2013-09-16 11:56:00,
2013-09-16 07:01:00,54.5,54.2,29.14,East,90,2.3,2.3,99,0.00,,,0.00,WeatherDisplay:10.37,2013-09-16 12:01:00,
2013-09-16 07:06:00,54.5,54.2,29.13,NE,45,4.6,4.6,99,0.00,,,0.00,WeatherDisplay:10.37,2013-09-16 12:06:00,
2013-09-16 07:11:00,54.3,54.0,29.13,NE,45,4.6,4.6,99,0.00,,,0.00,WeatherDisplay:10.37,2013-09-16 12:11:00,
2013-09-16 07:16:00,54.1,53.6,29.13,NE,45,5.8,5.8,98,0.00,,,0.00,WeatherDisplay:10.37,2013-09-16 12:16:00,
2013-09-16 07:21:00,54.1,53.6,29.14,NE,45,6.9,6.9,98,0.00,,,0.00,WeatherDisplay:10.37,2013-09-16 12:21:00,
2013-09-16 07:26:00,53.6,53.0,29.14,NE,45,5.8,5.8,98,0.00,,,0.00,WeatherDisplay:10.37,2013-09-16 12:26:00,
2013-09-16 07:31:00,53.4,52.9,29.14,South,180,2.3,2.3,98,0.00,,,0.00,WeatherDisplay:10.37,2013-09-16 12:31:00,
2013-09-16 07:36:00,53.4,52.9,29.14,SE,135,1.2,0.0,98,0.00,,,0.00,WeatherDisplay:10.37,2013-09-16 12:36:00,
2013-09-16 07:41:00,53.6,53.0,29.15,South,180,6.9,6.9,98,0.00,,,0.00,WeatherDisplay:10.37,2013-09-16 12:41:00,
2013-09-16 07:46:00,53.6,53.0,29.14,SE,135,3.5,3.5,98,0.00,,,0.00,WeatherDisplay:10.37,2013-09-16 12:46:00,
2013-09-16 07:51:00,53.8,53.2,29.15,NE,45,5.8,5.8,98,0.00,,,0.00,WeatherDisplay:10.37,2013-09-16 12:51:00,
2013-09-16 07:56:00,54.0,53.4,29.15,NE,45,6.9,6.9,98,0.00,,,0.00,WeatherDisplay:10.37,2013-09-16 12:56:00,
2013-09-16 08:01:00,54.1,53.3,29.15,East,90,5.8,5.8,97,0.00,,,0.00,WeatherDisplay:10.37,2013-09-16 13:01:00,
2013-09-16 08:06:00,54.1,53.3,29.15,East,90,5.8,5.8,97,0.00,,,0.00,WeatherDisplay:10.37,2013-09-16 13:06:00,
2013-09-16 08:11:00,55.2,54.1,29.15,South,180,3.5,0.0,96,0.00,,,0.00,WeatherDisplay:10.37,2013-09-16 13:11:00,
2013-09-16 08:16:00,55.2,53.8,29.15,SW,225,3.5,0.0,95,0.00,,,0.00,WeatherDisplay:10.37,2013-09-16 13:16:00,
2013-09-16 08:21:00,54.9,53.7,29.15,NW,315,2.3,2.3,96,0.00,,,0.00,WeatherDisplay:10.37,2013-09-16 13:21:00,
2013-09-16 08:26:00,55.0,53.9,29.15,SW,225,1.2,0.0,96,0.00,,,0.00,WeatherDisplay:10.37,2013-09-16 13:26:00,
2013-09-16 08:31:00,55.2,53.8,29.15,SE,135,4.6,4.6,95,0.00,,,0.00,WeatherDisplay:10.37,2013-09-16 13:31:00,
2013-09-16 08:36:00,55.2,53.8,29.15,East,90,3.5,3.5,95,0.00,,,0.00,WeatherDisplay:10.37,2013-09-16 13:36:00,
2013-09-16 08:41:00,55.4,53.7,29.15,SE,135,4.6,4.6,94,0.00,,,0.00,WeatherDisplay:10.37,2013-09-16 13:41:00,
2013-09-16 08:46:00,55.6,53.9,29.15,South,180,3.5,3.5,94,0.00,,,0.00,WeatherDisplay:10.37,2013-09-16 13:46:00,
2013-09-16 08:51:00,55.8,53.8,29.15,ESE,112,5.8,5.8,93,0.00,,,0.00,WeatherDisplay:10.37,2013-09-16 13:51:00,
2013-09-16 08:56:00,55.8,53.8,29.15,East,90,3.1,3.1,93,0.00,,,0.00,WeatherDisplay:10.37,2013-09-16 13:56:00,
2013-09-16 09:01:00,56.1,54.1,29.15,East,90,3.5,3.5,93,0.00,,,0.00,WeatherDisplay:10.37,2013-09-16 14:01:00,
2013-09-16 09:06:00,56.1,54.1,29.15,East,90,3.5,3.5,93,0.00,,,0.00,WeatherDisplay:10.37,2013-09-16 14:06:00,
2013-09-16 09:11:00,56.1,53.8,29.15,SE,135,5.8,5.8,92,0.00,,,0.00,WeatherDisplay:10.37,2013-09-16 14:11:00,
2013-09-16 09:16:00,56.3,54.0,29.16,SE,135,5.8,5.8,92,0.00,,,0.00,WeatherDisplay:10.37,2013-09-16 14:16:00,
2013-09-16 09:21:00,56.5,53.9,29.16,South,180,4.6,4.6,91,0.00,,,0.00,WeatherDisplay:10.37,2013-09-16 14:21:00,
2013-09-16 09:26:00,56.8,54.2,29.16,SE,135,3.5,3.5,91,0.00,,,0.00,WeatherDisplay:10.37,2013-09-16 14:26:00,
2013-09-16 09:31:00,57.0,54.4,29.16,NE,45,3.5,3.5,91,0.00,,,0.00,WeatherDisplay:10.37,2013-09-16 14:31:00,
2013-09-16 09:36:00,57.0,54.1,29.16,SE,135,4.6,4.6,90,0.00,,,0.00,WeatherDisplay:10.37,2013-09-16 14:36:00,
2013-09-16 09:41:00,57.0,54.1,29.16,SE,135,3.5,3.5,90,0.00,,,0.00,WeatherDisplay:10.37,2013-09-16 14:41:00,
2013-09-16 09:46:00,57.2,54.3,29.16,South,180,4.6,4.6,90,0.00,,,0.00,WeatherDisplay:10.37,2013-09-16 14:46:00,
2013-09-16 09:51:00,57.2,54.0,29.16,SSE,158,4.6,4.6,89,0.00,,,0.00,WeatherDisplay:10.37,2013-09-16 14:51:00,
2013-09-16 09:56:00,57.4,54.2,29.17,South,180,5.8,5.8,89,0.00,,,0.00,WeatherDisplay:10.37,2013-09-16 14:56:00,
2013-09-16 10:01:00,57.2,54.0,29.17,South,180,3.5,3.5,89,0.00,,,0.00,WeatherDisplay:10.37,2013-09-16 15:01:00,
2013-09-16 10:06:00,57.2,54.0,29.17,South,180,3.5,3.5,89,0.00,,,0.00,WeatherDisplay:10.37,2013-09-16 15:06:00,
2013-09-16 10:11:00,57.9,54.7,29.17,East,90,3.5,3.5,89,0.00,,,0.00,WeatherDisplay:10.37,2013-09-16 15:11:00,
2013-09-16 10:16:00,58.1,54.6,29.17,East,90,5.8,5.8,88,0.00,,,0.00,WeatherDisplay:10.37,2013-09-16 15:16:00,
2013-09-16 10:21:00,58.1,54.6,29.16,East,90,2.3,2.3,88,0.00,,,0.00,WeatherDisplay:10.37,2013-09-16 15:21:00,
2013-09-16 10:26:00,58.6,55.4,29.16,NE,45,2.3,2.3,89,0.00,,,0.00,WeatherDisplay:10.37,2013-09-16 15:26:00,
2013-09-16 10:31:00,59.0,55.4,29.16,East,90,3.5,3.5,88,0.00,,,0.00,WeatherDisplay:10.37,2013-09-16 15:31:00,
2013-09-16 10:36:00,60.1,56.5,29.16,SW,225,1.2,1.2,88,0.00,,,0.00,WeatherDisplay:10.37,2013-09-16 15:36:00,
2013-09-16 10:41:00,61.9,57.6,29.16,NE,45,3.5,3.5,86,0.00,,,0.00,WeatherDisplay:10.37,2013-09-16 15:41:00,
2013-09-16 10:46:00,64.8,59.1,29.16,North,0,3.5,3.5,82,0.00,,,0.00,WeatherDisplay:10.37,2013-09-16 15:46:00,
2013-09-16 10:51:00,66.2,57.3,29.16,SE,135,5.8,5.8,73,0.00,,,0.00,WeatherDisplay:10.37,2013-09-16 15:51:00,
2013-09-16 10:56:00,66.6,57.6,29.16,NE,45,3.5,3.5,73,0.00,,,0.00,WeatherDisplay:10.37,2013-09-16 15:56:00,
2013-09-16 11:01:00,67.3,56.8,29.16,South,180,3.5,3.5,69,0.00,,,0.00,WeatherDisplay:10.37,2013-09-16 16:01:00,
2013-09-16 11:06:00,67.3,56.8,29.16,South,180,3.8,3.8,69,0.00,,,0.00,WeatherDisplay:10.37,2013-09-16 16:06:00,
2013-09-16 11:11:00,65.7,56.0,29.16,SE,135,3.5,3.5,71,0.00,,,0.00,WeatherDisplay:10.37,2013-09-16 16:11:00,
2013-09-16 11:16:00,65.7,56.8,29.16,NE,45,1.2,1.2,73,0.00,,,0.00,WeatherDisplay:10.37,2013-09-16 16:16:00,
2013-09-16 11:21:00,66.2,56.9,29.16,SE,135,5.8,5.8,72,0.00,,,0.00,WeatherDisplay:10.37,2013-09-16 16:21:00,
2013-09-16 11:26:00,66.2,56.1,29.15,East,90,6.9,6.9,70,0.00,,,0.00,WeatherDisplay:10.37,2013-09-16 16:26:00,
2013-09-16 11:31:00,65.5,56.2,29.15,SE,135,4.6,4.6,72,0.00,,,0.00,WeatherDisplay:10.37,2013-09-16 16:31:00,
2013-09-16 11:36:00,66.0,56.0,29.15,SE,135,8.1,8.1,70,0.00,,,0.00,WeatherDisplay:10.37,2013-09-16 16:36:00,
2013-09-16 11:41:00,65.3,55.7,29.15,SW,225,5.8,5.8,71,0.00,,,0.00,WeatherDisplay:10.37,2013-09-16 16:41:00,
2013-09-16 11:46:00,65.7,56.0,29.14,SSE,158,5.8,5.8,71,0.00,,,0.00,WeatherDisplay:10.37,2013-09-16 16:46:00,
2013-09-16 11:51:00,65.8,56.2,29.14,South,180,8.1,8.1,71,0.00,,,0.00,WeatherDisplay:10.37,2013-09-16 16:51:00,
2013-09-16 11:56:00,66.2,56.5,29.14,East,90,5.8,5.8,71,0.00,,,0.00,WeatherDisplay:10.37,2013-09-16 16:56:00,
2013-09-16 12:01:00,67.1,57.0,29.14,East,90,5.8,5.8,70,0.00,,,0.00,WeatherDisplay:10.37,2013-09-16 17:01:00,
2013-09-16 12:06:00,67.1,57.0,29.15,East,90,5.8,5.8,70,0.00,,,0.00,WeatherDisplay:10.37,2013-09-16 17:06:00,
2013-09-16 12:11:00,68.4,56.6,29.14,ESE,112,6.9,6.9,66,0.00,,,0.00,WeatherDisplay:10.37,2013-09-16 17:11:00,
2013-09-16 12:16:00,68.0,55.4,29.14,South,180,9.2,9.2,64,0.00,,,0.00,WeatherDisplay:10.37,2013-09-16 17:16:00,
2013-09-16 12:21:00,67.5,56.1,29.14,South,180,6.9,6.9,67,0.00,,,0.00,WeatherDisplay:10.37,2013-09-16 17:21:00,
2013-09-16 12:26:00,67.5,56.1,29.14,SE,135,5.8,5.8,67,0.00,,,0.00,WeatherDisplay:10.37,2013-09-16 17:26:00,
2013-09-16 12:31:00,67.8,55.6,29.14,South,180,9.2,9.2,65,0.00,,,0.00,WeatherDisplay:10.37,2013-09-16 17:31:00,
2013-09-16 12:36:00,67.3,55.9,29.14,SE,135,5.8,5.8,67,0.00,,,0.00,WeatherDisplay:10.37,2013-09-16 17:36:00,
2013-09-16 12:41:00,66.9,56.0,29.14,South,180,8.1,8.1,68,0.00,,,0.00,WeatherDisplay:10.37,2013-09-16 17:41:00,
2013-09-16 12:46:00,66.9,55.6,29.14,SE,135,8.1,8.1,67,0.00,,,0.00,WeatherDisplay:10.37,2013-09-16 17:46:00,
2013-09-16 12:51:00,66.9,54.8,29.13,SE,135,8.1,8.1,65,0.00,,,0.00,WeatherDisplay:10.37,2013-09-16 17:51:00,
2013-09-16 12:56:00,67.3,55.1,29.13,SE,135,10.4,10.4,65,0.00,,,0.00,WeatherDisplay:10.37,2013-09-16 17:56:00,
2013-09-16 13:01:00,67.5,55.7,29.13,SW,225,6.9,6.9,66,0.00,,,0.00,WeatherDisplay:10.37,2013-09-16 18:01:00,
2013-09-16 13:06:00,67.5,55.7,29.13,SW,225,6.9,6.9,66,0.00,,,0.00,WeatherDisplay:10.37,2013-09-16 18:06:00,
2013-09-16 13:11:00,68.4,55.3,29.13,SE,135,11.5,11.5,63,0.00,,,0.00,WeatherDisplay:10.37,2013-09-16 18:11:00,
2013-09-16 13:16:00,67.8,55.6,29.13,South,180,8.1,8.1,65,0.00,,,0.00,WeatherDisplay:10.37,2013-09-16 18:16:00,
2013-09-16 13:21:00,69.6,57.3,29.12,East,90,10.4,10.4,65,0.00,,,0.00,WeatherDisplay:10.37,2013-09-16 18:21:00,
2013-09-16 13:26:00,69.8,56.2,29.12,SE,135,10.4,10.4,62,0.00,,,0.00,WeatherDisplay:10.37,2013-09-16 18:26:00,
2013-09-16 13:31:00,68.4,54.8,29.12,SE,135,8.1,8.3,62,0.00,,,0.00,WeatherDisplay:10.37,2013-09-16 18:31:00,
2013-09-16 13:36:00,67.8,55.2,29.12,South,180,5.8,5.8,64,0.00,,,0.00,WeatherDisplay:10.37,2013-09-16 18:36:00,
2013-09-16 13:41:00,67.8,55.2,29.12,SE,135,8.1,8.1,64,0.00,,,0.00,WeatherDisplay:10.37,2013-09-16 18:41:00,
2013-09-16 13:46:00,68.7,54.3,29.11,South,180,15.0,15.0,60,0.00,,,0.00,WeatherDisplay:10.37,2013-09-16 18:46:00,
2013-09-16 13:51:00,69.4,54.5,29.11,South,180,12.7,12.7,59,0.00,,,0.00,WeatherDisplay:10.37,2013-09-16 18:51:00,
2013-09-16 13:56:00,68.2,55.1,29.11,East,90,8.1,8.1,63,0.00,,,0.00,WeatherDisplay:10.37,2013-09-16 18:56:00,
2013-09-16 14:01:00,67.8,54.8,29.10,SE,135,4.6,4.6,63,0.00,,,0.00,WeatherDisplay:10.37,2013-09-16 19:01:00,
2013-09-16 14:06:00,67.8,54.8,29.10,SE,135,4.6,4.6,63,0.00,,,0.00,WeatherDisplay:10.37,2013-09-16 19:06:00,
2013-09-16 14:11:00,68.0,55.4,29.10,South,180,6.9,7.6,64,0.00,,,0.00,WeatherDisplay:10.37,2013-09-16 19:11:00,
2013-09-16 14:16:00,68.2,55.1,29.10,South,180,9.2,9.2,63,0.00,,,0.00,WeatherDisplay:10.37,2013-09-16 19:16:00,
2013-09-16 14:21:00,68.7,55.2,29.09,ESE,112,10.4,10.4,62,0.00,,,0.00,WeatherDisplay:10.37,2013-09-16 19:21:00,
2013-09-16 14:26:00,68.5,54.6,29.09,SSE,158,10.4,10.4,61,0.00,,,0.00,WeatherDisplay:10.37,2013-09-16 19:26:00,
2013-09-16 14:31:00,69.8,55.3,29.09,South,180,8.1,8.1,60,0.00,,,0.00,WeatherDisplay:10.37,2013-09-16 19:31:00,
2013-09-16 14:36:00,71.4,54.9,29.09,SE,135,10.4,10.4,56,0.00,,,0.00,WeatherDisplay:10.37,2013-09-16 19:36:00,
2013-09-16 14:41:00,71.6,55.6,29.08,SE,135,6.9,6.9,57,0.00,,,0.00,WeatherDisplay:10.37,2013-09-16 19:41:00,
2013-09-16 14:46:00,71.2,55.2,29.08,East,90,6.9,6.9,57,0.00,,,0.00,WeatherDisplay:10.37,2013-09-16 19:46:00,
2013-09-16 14:51:00,70.2,54.7,29.08,SE,135,9.2,9.2,58,0.00,,,0.00,WeatherDisplay:10.37,2013-09-16 19:51:00,
2013-09-16 14:56:00,71.1,53.6,29.08,SSE,158,11.5,11.5,54,0.00,,,0.00,WeatherDisplay:10.37,2013-09-16 19:56:00,
2013-09-16 15:01:00,71.8,55.2,29.07,East,90,9.2,9.2,56,0.00,,,0.00,WeatherDisplay:10.37,2013-09-16 20:01:00,
2013-09-16 15:06:00,71.8,55.2,29.07,East,90,5.8,5.8,56,0.00,,,0.00,WeatherDisplay:10.37,2013-09-16 20:06:00,
2013-09-16 15:11:00,70.0,53.6,29.07,South,180,11.5,11.5,56,0.00,,,0.00,WeatherDisplay:10.37,2013-09-16 20:11:00,
2013-09-16 15:16:00,70.2,53.2,29.07,SE,135,8.1,8.1,55,0.00,,,0.00,WeatherDisplay:10.37,2013-09-16 20:16:00,
2013-09-16 15:21:00,70.2,53.2,29.07,East,90,6.9,6.9,55,0.00,,,0.00,WeatherDisplay:10.37,2013-09-16 20:21:00,
2013-09-16 15:26:00,70.2,53.2,29.06,South,180,9.2,9.2,55,0.00,,,0.00,WeatherDisplay:10.37,2013-09-16 20:26:00,
2013-09-16 15:31:00,70.7,53.7,29.06,South,180,9.2,9.2,55,0.00,,,0.00,WeatherDisplay:10.37,2013-09-16 20:31:00,
2013-09-16 15:36:00,70.3,52.9,29.06,ESE,112,8.1,8.1,54,0.00,,,0.00,WeatherDisplay:10.37,2013-09-16 20:36:00,
2013-09-16 15:41:00,71.1,53.1,29.06,SE,135,11.5,11.5,53,0.00,,,0.00,WeatherDisplay:10.37,2013-09-16 20:41:00,
2013-09-16 15:46:00,70.3,53.4,29.05,SE,135,10.4,10.4,55,0.00,,,0.00,WeatherDisplay:10.37,2013-09-16 20:46:00,
2013-09-16 15:51:00,70.5,53.6,29.06,NE,45,11.5,11.5,55,0.00,,,0.00,WeatherDisplay:10.37,2013-09-16 20:51:00,
2013-09-16 15:56:00,70.5,53.6,29.05,East,90,9.2,9.2,55,0.00,,,0.00,WeatherDisplay:10.37,2013-09-16 20:56:00,
2013-09-16 16:01:00,70.5,53.6,29.05,East,90,8.1,8.1,55,0.00,,,0.00,WeatherDisplay:10.37,2013-09-16 21:01:00,
2013-09-16 16:06:00,70.5,53.6,29.04,East,90,8.1,8.1,55,0.00,,,0.00,WeatherDisplay:10.37,2013-09-16 21:06:00,
2013-09-16 16:11:00,73.8,54.0,29.04,South,180,8.1,8.1,50,0.00,,,0.00,WeatherDisplay:10.37,2013-09-16 21:11:00,
2013-09-16 16:16:00,73.4,53.1,29.04,SE,135,12.7,12.7,49,0.00,,,0.00,WeatherDisplay:10.37,2013-09-16 21:16:00,
2013-09-16 16:21:00,71.6,53.0,29.04,SE,135,11.5,11.5,52,0.00,,,0.00,WeatherDisplay:10.37,2013-09-16 21:21:00,
2013-09-16 16:26:00,71.2,52.7,29.03,SE,135,9.2,9.2,52,0.00,,,0.00,WeatherDisplay:10.37,2013-09-16 21:26:00,
2013-09-16 16:31:00,70.5,53.1,29.03,NE,45,5.8,5.8,54,0.00,,,0.00,WeatherDisplay:10.37,2013-09-16 21:31:00,
2013-09-16 16:36:00,70.7,53.7,29.03,SE,135,9.2,9.2,55,0.00,,,0.00,WeatherDisplay:10.37,2013-09-16 21:36:00,
2013-09-16 16:41:00,71.4,53.4,29.03,South,180,9.2,9.2,53,0.00,,,0.00,WeatherDisplay:10.37,2013-09-16 21:41:00,
2013-09-16 16:46:00,71.4,53.4,29.02,South,180,10.4,10.4,53,0.00,,,0.00,WeatherDisplay:10.37,2013-09-16 21:46:00,
2013-09-16 16:51:00,70.9,53.4,29.02,East,90,8.1,8.1,54,0.00,,,0.00,WeatherDisplay:10.37,2013-09-16 21:51:00,
2013-09-16 16:56:00,70.3,53.4,29.02,East,90,8.1,8.1,55,0.00,,,0.00,WeatherDisplay:10.37,2013-09-16 21:56:00,
2013-09-16 17:01:00,70.0,53.6,29.02,East,90,10.4,10.4,56,0.00,,,0.00,WeatherDisplay:10.37,2013-09-16 22:01:00,
2013-09-16 17:06:00,70.0,53.6,29.02,East,90,8.1,8.1,56,0.00,,,0.00,WeatherDisplay:10.37,2013-09-16 22:06:00,
2013-09-16 17:11:00,70.5,53.6,29.02,SE,135,9.2,9.2,55,0.00,,,0.00,WeatherDisplay:10.37,2013-09-16 22:11:00,
2013-09-16 17:16:00,70.2,53.7,29.01,SE,135,10.4,10.4,56,0.00,,,0.00,WeatherDisplay:10.37,2013-09-16 22:16:00,
2013-09-16 17:21:00,70.3,53.9,29.01,SE,135,9.2,9.2,56,0.00,,,0.00,WeatherDisplay:10.37,2013-09-16 22:21:00,
2013-09-16 17:26:00,70.7,53.7,29.02,East,90,8.1,8.1,55,0.00,,,0.00,WeatherDisplay:10.37,2013-09-16 22:26:00,
2013-09-16 17:31:00,71.2,53.7,29.01,SE,135,9.2,9.2,54,0.00,,,0.00,WeatherDisplay:10.37,2013-09-16 22:31:00,
2013-09-16 17:36:00,71.6,54.1,29.01,SE,135,6.9,6.9,54,0.00,,,0.00,WeatherDisplay:10.37,2013-09-16 22:36:00,
2013-09-16 17:41:00,71.2,53.7,29.02,South,180,8.1,8.1,54,0.00,,,0.00,WeatherDisplay:10.37,2013-09-16 22:41:00,
2013-09-16 17:46:00,70.9,53.4,29.01,East,90,6.9,6.9,54,0.00,,,0.00,WeatherDisplay:10.37,2013-09-16 22:46:00,
2013-09-16 17:51:00,70.7,54.2,29.01,SE,135,5.8,5.8,56,0.00,,,0.00,WeatherDisplay:10.37,2013-09-16 22:51:00,
2013-09-16 17:56:00,70.5,54.1,29.01,East,90,6.9,6.9,56,0.00,,,0.00,WeatherDisplay:10.37,2013-09-16 22:56:00,
2013-09-16 18:01:00,70.2,53.7,29.01,SE,135,5.8,5.8,56,0.00,,,0.00,WeatherDisplay:10.37,2013-09-16 23:01:00,
2013-09-16 18:06:00,70.2,53.7,29.01,SE,135,5.8,5.8,56,0.00,,,0.00,WeatherDisplay:10.37,2013-09-16 23:06:00,
2013-09-16 18:11:00,69.3,53.8,29.00,SE,135,6.9,6.9,58,0.00,,,0.00,WeatherDisplay:10.37,2013-09-16 23:11:00,
2013-09-16 18:16:00,69.4,54.0,29.00,South,180,3.5,3.5,58,0.00,,,0.00,WeatherDisplay:10.37,2013-09-16 23:16:00,
2013-09-16 18:21:00,69.1,53.7,29.00,SW,225,5.8,5.8,58,0.00,,,0.00,WeatherDisplay:10.37,2013-09-16 23:21:00,
2013-09-16 18:26:00,68.7,53.8,29.00,South,180,5.8,5.8,59,0.00,,,0.00,WeatherDisplay:10.37,2013-09-16 23:26:00,
2013-09-16 18:31:00,68.7,54.3,29.00,SE,135,4.6,4.6,60,0.00,,,0.00,WeatherDisplay:10.37,2013-09-16 23:31:00,
2013-09-16 18:36:00,68.9,54.4,29.00,SE,135,4.6,4.6,60,0.00,,,0.00,WeatherDisplay:10.37,2013-09-16 23:36:00,
2013-09-16 18:41:00,68.5,54.6,29.00,South,180,5.8,5.8,61,0.00,,,0.00,WeatherDisplay:10.37,2013-09-16 23:41:00,
2013-09-16 18:46:00,68.0,54.5,29.00,SE,135,3.5,3.5,62,0.00,,,0.00,WeatherDisplay:10.37,2013-09-16 23:46:00,
2013-09-16 18:51:00,67.3,53.8,29.00,SE,135,3.5,3.5,62,0.00,,,0.00,WeatherDisplay:10.37,2013-09-16 23:51:00,
2013-09-16 18:56:00,66.7,54.2,28.99,SE,135,3.5,3.5,64,0.00,,,0.00,WeatherDisplay:10.37,2013-09-16 23:56:00,
2013-09-16 19:01:00,66.4,54.3,29.00,East,90,3.5,3.5,65,0.00,,,0.00,WeatherDisplay:10.37,2013-09-17 00:01:00,
2013-09-16 19:06:00,66.4,54.3,28.99,East,90,3.5,3.5,65,0.00,,,0.00,WeatherDisplay:10.37,2013-09-17 00:06:00,
2013-09-16 19:11:00,65.3,53.6,29.00,SE,135,3.5,3.5,66,0.00,,,0.00,WeatherDisplay:10.37,2013-09-17 00:11:00,
2013-09-16 19:16:00,64.9,53.7,28.99,SE,135,3.5,3.5,67,0.00,,,0.00,WeatherDisplay:10.37,2013-09-17 00:16:00,
2013-09-16 19:21:00,64.6,53.8,28.99,SE,135,3.5,3.5,68,0.00,,,0.00,WeatherDisplay:10.37,2013-09-17 00:21:00,
2013-09-16 19:26:00,64.0,53.3,28.99,SE,135,1.2,0.0,68,0.00,,,0.00,WeatherDisplay:10.37,2013-09-17 00:26:00,
2013-09-16 19:31:00,63.5,53.1,28.99,SE,135,1.2,1.2,69,0.00,,,0.00,WeatherDisplay:10.37,2013-09-17 00:31:00,
2013-09-16 19:36:00,63.3,53.4,28.99,SE,135,2.3,2.3,70,0.00,,,0.00,WeatherDisplay:10.37,2013-09-17 00:36:00,
2013-09-16 19:41:00,63.0,53.0,28.99,East,90,3.5,3.5,70,0.00,,,0.00,WeatherDisplay:10.37,2013-09-17 00:41:00,
2013-09-16 19:46:00,62.6,53.1,28.99,East,90,3.5,0.0,71,0.00,,,0.00,WeatherDisplay:10.37,2013-09-17 00:46:00,
2013-09-16 19:52:00,62.4,52.9,28.99,SE,135,2.3,2.3,71,0.00,,,0.00,WeatherDisplay:10.37,2013-09-17 00:52:00,
2013-09-16 19:57:00,62.1,52.9,28.99,SE,135,1.2,1.2,72,0.00,,,0.00,WeatherDisplay:10.37,2013-09-17 00:57:00,
2013-09-16 20:02:00,61.9,52.8,28.99,SE,135,1.2,1.2,72,0.00,,,0.00,WeatherDisplay:10.37,2013-09-17 01:02:00,
2013-09-16 20:07:00,61.9,52.8,28.99,SE,135,1.2,1.2,72,0.00,,,0.00,WeatherDisplay:10.37,2013-09-17 01:07:00,
2013-09-16 20:12:00,61.3,53.0,28.99,SE,135,3.8,3.8,74,0.00,,,0.00,WeatherDisplay:10.37,2013-09-17 01:12:00,
2013-09-16 20:17:00,61.3,53.0,28.99,South,180,3.5,3.5,74,0.00,,,0.00,WeatherDisplay:10.37,2013-09-17 01:17:00,
2013-09-16 20:22:00,61.2,52.8,28.99,East,90,1.2,1.2,74,0.00,,,0.00,WeatherDisplay:10.37,2013-09-17 01:22:00,
2013-09-16 20:27:00,61.0,53.0,28.99,SE,135,3.5,3.5,75,0.00,,,0.00,WeatherDisplay:10.37,2013-09-17 01:27:00,
2013-09-16 20:32:00,61.0,53.0,28.99,SE,135,3.5,3.5,75,0.00,,,0.00,WeatherDisplay:10.37,2013-09-17 01:32:00,
2013-09-16 20:37:00,61.0,53.0,28.99,SE,135,5.8,5.8,75,0.00,,,0.00,WeatherDisplay:10.37,2013-09-17 01:37:00,
2013-09-16 20:42:00,61.0,53.4,29.00,East,90,5.8,5.8,76,0.00,,,0.00,WeatherDisplay:10.37,2013-09-17 01:42:00,
2013-09-16 20:47:00,61.0,53.4,29.00,SE,135,3.5,3.5,76,0.00,,,0.00,WeatherDisplay:10.37,2013-09-17 01:47:00,
2013-09-16 20:52:00,60.6,53.0,29.00,SE,135,3.5,3.5,76,0.00,,,0.00,WeatherDisplay:10.37,2013-09-17 01:52:00,
2013-09-16 20:57:00,60.4,53.2,29.00,SSW,202,4.6,4.6,77,0.00,,,0.00,WeatherDisplay:10.37,2013-09-17 01:57:00,
2013-09-16 21:02:00,60.4,53.2,29.00,SE,135,6.9,6.9,77,0.00,,,0.00,WeatherDisplay:10.37,2013-09-17 02:02:00,
2013-09-16 21:07:00,60.4,53.2,29.00,SE,135,6.9,6.9,77,0.00,,,0.00,WeatherDisplay:10.37,2013-09-17 02:07:00,
2013-09-16 21:12:00,60.1,53.2,28.99,SE,135,3.5,3.5,78,0.00,,,0.00,WeatherDisplay:10.37,2013-09-17 02:12:00,
2013-09-16 21:17:00,60.3,53.7,29.00,SE,135,6.9,6.9,79,0.00,,,0.00,WeatherDisplay:10.37,2013-09-17 02:17:00,
2013-09-16 21:22:00,60.4,53.5,29.00,SE,135,3.5,3.5,78,0.00,,,0.00,WeatherDisplay:10.37,2013-09-17 02:22:00,
2013-09-16 21:27:00,60.4,53.5,29.00,SE,135,4.6,4.6,78,0.00,,,0.00,WeatherDisplay:10.37,2013-09-17 02:27:00,
2013-09-16 21:32:00,60.4,53.5,29.00,East,90,5.8,5.8,78,0.00,,,0.00,WeatherDisplay:10.37,2013-09-17 02:32:00,
2013-09-16 21:37:00,60.3,53.7,29.00,South,180,3.5,3.5,79,0.00,,,0.00,WeatherDisplay:10.37,2013-09-17 02:37:00,
2013-09-16 21:42:00,59.9,53.7,29.00,SSE,158,4.6,4.6,80,0.00,,,0.00,WeatherDisplay:10.37,2013-09-17 02:42:00,
2013-09-16 21:47:00,59.7,53.9,29.00,SE,135,4.6,4.6,81,0.00,,,0.00,WeatherDisplay:10.37,2013-09-17 02:47:00,
2013-09-16 21:52:00,59.5,54.0,29.00,South,180,5.8,5.8,82,0.00,,,0.00,WeatherDisplay:10.37,2013-09-17 02:52:00,
2013-09-16 21:57:00,59.5,54.0,29.00,South,180,5.8,5.8,82,0.00,,,0.00,WeatherDisplay:10.37,2013-09-17 02:57:00,
2013-09-16 22:02:00,59.5,54.4,29.00,South,180,8.1,8.1,83,0.00,,,0.00,WeatherDisplay:10.37,2013-09-17 03:02:00,
2013-09-16 22:07:00,59.5,54.4,29.00,South,180,8.1,8.1,83,0.00,,,0.00,WeatherDisplay:10.37,2013-09-17 03:07:00,
2013-09-16 22:12:00,59.7,54.5,29.00,South,180,5.8,5.8,83,0.00,,,0.00,WeatherDisplay:10.37,2013-09-17 03:12:00,
2013-09-16 22:17:00,59.7,54.5,29.00,South,180,8.1,8.1,83,0.00,,,0.00,WeatherDisplay:10.37,2013-09-17 03:17:00,
2013-09-16 22:22:00,59.9,54.7,29.00,South,180,5.8,5.8,83,0.00,,,0.00,WeatherDisplay:10.37,2013-09-17 03:22:00,
2013-09-16 22:27:00,59.9,54.7,29.00,South,180,6.9,6.9,83,0.00,,,0.00,WeatherDisplay:10.37,2013-09-17 03:27:00,
2013-09-16 22:32:00,59.9,54.4,29.00,South,180,12.7,12.7,82,0.00,,,0.00,WeatherDisplay:10.37,2013-09-17 03:32:00,
2013-09-16 22:37:00,60.1,54.6,29.00,South,180,9.2,9.2,82,0.00,,,0.00,WeatherDisplay:10.37,2013-09-17 03:37:00,
2013-09-16 22:42:00,60.1,54.6,29.00,SE,135,10.4,10.4,82,0.00,,,0.00,WeatherDisplay:10.37,2013-09-17 03:42:00,
2013-09-16 22:47:00,60.1,54.6,29.00,South,180,8.1,8.1,82,0.00,,,0.00,WeatherDisplay:10.37,2013-09-17 03:47:00,
2013-09-16 22:52:00,59.9,54.7,29.00,South,180,9.2,9.2,83,0.00,,,0.00,WeatherDisplay:10.37,2013-09-17 03:52:00,
2013-09-16 22:57:00,59.9,54.7,29.00,South,180,6.9,6.9,83,0.00,,,0.00,WeatherDisplay:10.37,2013-09-17 03:57:00,
2013-09-16 23:01:00,59.7,54.9,29.00,South,180,6.9,6.9,84,0.00,,,0.00,WeatherDisplay:10.37,2013-09-17 04:01:00,
2013-09-16 23:06:00,59.7,54.9,29.01,South,180,6.9,6.9,84,0.00,,,0.00,WeatherDisplay:10.37,2013-09-17 04:06:00,
2013-09-16 23:11:00,59.5,55.0,29.01,SE,135,8.1,8.1,85,0.00,,,0.00,WeatherDisplay:10.37,2013-09-17 04:11:00,
2013-09-16 23:16:00,59.5,55.0,29.01,South,180,8.1,8.1,85,0.00,,,0.00,WeatherDisplay:10.37,2013-09-17 04:16:00,
2013-09-16 23:21:00,59.5,55.0,29.01,SE,135,9.2,9.2,85,0.00,,,0.00,WeatherDisplay:10.37,2013-09-17 04:21:00,
2013-09-16 23:26:00,59.7,54.9,29.00,SSE,158,12.7,12.7,84,0.00,,,0.00,WeatherDisplay:10.37,2013-09-17 04:26:00,
2013-09-16 23:31:00,59.9,55.1,29.00,South,180,11.5,11.5,84,0.00,,,0.00,WeatherDisplay:10.37,2013-09-17 04:31:00,
2013-09-16 23:36:00,60.1,54.9,29.00,South,180,12.7,12.7,83,0.00,,,0.00,WeatherDisplay:10.37,2013-09-17 04:36:00,
2013-09-16 23:41:00,60.1,54.9,29.00,South,180,12.7,12.7,83,0.00,,,0.00,WeatherDisplay:10.37,2013-09-17 04:41:00,
2013-09-16 23:46:00,59.9,55.1,29.00,South,180,13.8,13.8,84,0.00,,,0.00,WeatherDisplay:10.37,2013-09-17 04:46:00,
2013-09-16 23:51:00,59.9,55.1,29.00,South,180,8.1,8.1,84,0.00,,,0.00,WeatherDisplay:10.37,2013-09-17 04:51:00,
2013-09-16 23:56:00,59.7,54.9,29.00,South,180,12.7,12.7,84,0.00,,,0.00,WeatherDisplay:10.37,2013-09-17 04:56:00,